Weather in Essoyla

Russia / Republic of Karelia     61°50′49″N   33°12′40″E
temp.,
°C
wind,
m/s
gust,
m/s
humid.,
%
clouds,
%
prec.,
mm/h
press.,
hPa
HPBL,
m
5 august, thu
thu500:00+10wsw22815 0.0 101433
03:00+8wsw118634 0.0 101610
06:00+10n007881 0.0 101627
09:00+13s016592 0.0 1017144
12:00+18sw1243100 0.0 10171242
15:00+19wsw1137100 0.0 10172065
18:00+17wnw1254100 0.0 1017184
21:00+14s006495 0.0 101811
6 august, fri
fri600:00+13ene2267100 0.0 101844
03:00+11ene246998 0.0 101981
06:00+11ne278023 0.0 1018173
09:00+16ene3661100 0.0 1019554
12:00+20ene563999 0.0 10182486
15:00+20e573769 0.0 10182440
18:00+20ene39385 0.0 10172254
21:00+13ese26705 0.0 1018115
7 august, sat
sat700:00+10ene210875 0.0 1019221
03:00+11ene4138612 0.0 1018455
06:00+12ene41383100 0.0 1018599
09:00+16e5116676 0.0 1017967
12:00+18e61059100 0.0 10161201
15:00+18e61165100 0.0 1016990
18:00+18e61263100 0.0 10151137
21:00+15e51382100 0.1 1015906
8 august, sun
sun800:00+14e51388100 0.1 1014831
03:00+13ene51496100 2.0 1013735
06:00+13ene51397100 2.2 1012822
09:00+13ene51197100 3.2 1012881
12:00+14e51196100 0.4 1012808
15:00+13ene41097100 2.0 1013753
18:00+13ene4997100 0.6 1013692
21:00+12ene3897100 0.7 1014567
9 august, mon
mon900:00+12ne3797100 0.0 1014502
03:00+11nne2598100 0.0 1015302
06:00+11ne2697100 0.0 1015295
09:00+13ne2593100 0.0 1016387
12:00+15ene3484100 0.0 1017687
15:00+15ene3482100 0.1 1017638
18:00+15ene3481100 0.0 1017643
21:00+14ene378993 0.0 1016427